Regional Weather Roundup
Issued by NWS Little Rock, AR

Home | Current Version | Previous Version | Text Only | Print | Product List | Glossary On
Versions: 1 2 3 4 5 6 7 8 9 10 11 12 13 14 15 16 17 18 19 20 21 22 23 24 25 26 27 28 29 30 31 32 33 34 35 36 37 38 39 40 41 42 43 44 45 46 47 48 49 50
000
ASUS44 KLZK 252005
RWRLZK

WEATHER ROUNDUP FOR ARKANSAS
NATIONAL WEATHER SERVICE LITTLE ROCK AR
200 PM CST TUE NOV 25 2014

NOTE: "FAIR" INDICATES FEW OR NO CLOUDS BELOW 12,000 FEET WITH NO
SIGNIFICANT WEATHER AND/OR OBSTRUCTIONS TO VISIBILITY.

ARZ001-003-010-029-252100-
NORTHWEST ARKANSAS

CITY           SKY/WX    TMP DP  RH WIND       PRES   REMARKS
FAYETTEVILLE   MOSUNNY   46  20  35 W6        30.17F
FORT SMITH     SUNNY     52  17  25 W6        30.19F
HARRISON       SUNNY     47  14  26 NW8       30.15F
BENTONVILLE    SUNNY     46  19  34 NW10      30.17F
ROGERS         SUNNY     45  17  32 W9        30.16F
SILOAM SPGS    SUNNY     46  19  34 W10       30.18F
HIGHFILL       SUNNY     47  19  33 NW7       30.16F
SPRINGDALE     SUNNY     46  18  31 NW6       30.18F
$$

ARZ004-005-016-252100-
NORTH CENTRAL ARKANSAS

CITY           SKY/WX    TMP DP  RH WIND       PRES   REMARKS
BATESVILLE     SUNNY     50  19  29 W6        30.16F
FLIPPIN        SUNNY     46  14  27 W6        30.16F
MTN HOME       SUNNY     45  13  27 VRB7      30.15F
$$

ARZ040-041-252100-
WEST CENTRAL ARKANSAS

CITY           SKY/WX    TMP DP  RH WIND       PRES   REMARKS
MENA           SUNNY     55  27  33 NW7       30.16F
MOUNT IDA      SUNNY     55  21  26 VRB5      30.14F
$$

ARZ009-017-025-026-028-252100-
NORTHEAST ARKANSAS

CITY           SKY/WX    TMP DP  RH WIND       PRES   REMARKS
CORNING        FAIR      46  25  42 W3        30.17F
JONESBORO      SUNNY     46  27  47 W8        30.17F
NEWPORT        SUNNY     50  21  32 N7        30.18F
WALNUT RIDGE   SUNNY     46  21  36 NW7       30.15F
BLYTHEVILLE    MOSUNNY   59  28  30 NW6       30.18F
$$

ARZ022-023-033-042-044-252100-
CENTRAL ARKANSAS

CITY           SKY/WX    TMP DP  RH WIND       PRES   REMARKS
LITTLE ROCK    MOSUNNY   55  13  18 N7        30.17F
N LITTLE ROCK  MOSUNNY   52  20  28 N8        30.17F
JACKSONVILLE   SUNNY     54  18  24 W8        30.17F
SEARCY         SUNNY     53  17  24 VRB7      30.18F
HOT SPRINGS    SUNNY     55  20  25 VRB3      30.17F
RUSSELLVILLE   SUNNY     52  17  25 NW8       30.17F
CLINTON        FAIR      52  16  24 W7        30.17F
$$

ARZ036-252100-
EAST ARKANSAS

CITY           SKY/WX    TMP DP  RH WIND       PRES   REMARKS
WEST MEMPHIS   MOSUNNY   47  27  45 NW6       30.18F
$$

ARZ050-053-066-070-073-252100-
SOUTHWEST ARKANSAS

CITY           SKY/WX    TMP DP  RH WIND       PRES   REMARKS
ARKADELPHIA    FAIR      56  23  27 CALM      30.18F
CAMDEN         SUNNY     57  23  26 CALM      30.20F
TEXARKANA      SUNNY     58  22  24 NW3       30.19F
EL DORADO      SUNNY     54  25  32 VRB3      30.20F
DE QUEEN       SUNNY     58  26  29 VRB3      30.16F
$$

ARZ056-057-069-252100-
SOUTHEAST ARKANSAS

CITY           SKY/WX    TMP DP  RH WIND       PRES   REMARKS
PINE BLUFF     MOSUNNY   52  23  32 CALM      30.19F
STUTTGART      MOSUNNY   52  25  35 CALM      30.20F
MONTICELLO     PTSUNNY   54  24  31 CALM      30.19F

$$





USA.gov is the U.S. government's official web portal to all federal, state and local government web resources and services.